Flag for China Weather past 2 weeks in Chengdu, China

Now
63 °F

Passing clouds.


Feels Like: 63 °F
Forecast: 64 / 81 °F
Wind: 1 mph from North

Location: Chengdu Airport


UV Index: 5 (Moderate)

Visibility: N/A


Pressure: 29.92 "Hg

Humidity: 77%

Dew point: 55 °F

Location of ChengduLocation

Historic Weather in Chengdu

°F

Chengdu temperature yesterday

Maximum temperature yesterday: 81 °F (at 2:00 PM)
Minimum temperature yesterday: 64 °F (at 1:00 AM)
Average temperature yesterday: 73 °F

Past Weeks' High & Low Weather Summary

 TemperatureHumidityPressure
High84 °F (Apr 13, 3:00 PM)94% (Apr 5, 9:00 AM)30.15 "Hg (Apr 5, 9:00 AM)
Low52 °F (Apr 6, 5:00 AM)30% (Apr 12, 4:00 PM)29.62 "Hg (Apr 15, 5:00 PM)
Average68 °F70%29.87 "Hg
* Reported Apr 4 3:00 AM — Apr 19 3:00 AM, Chengdu, Weather by CustomWeather, © 2014

Note: Actual official high and low records may vary slightly from our data, if they occured in-between our weather recording intervals... More about our weather records

Advertising

Historic Weather Conditions — Data for Previous 24 hours

 ConditionsComfort  
Time TempWeatherWind HumidityBarometerVisibility
3:00 AM
Apr 19
61 °FThunderstorms. Passing clouds.8 mph83%29.92 "HgN/A
2:00 AM64 °FThunderstorms. Passing clouds.15 mph68%29.89 "HgN/A
1:00 AM70 °FThunderstorms. Passing clouds.10 mph57%29.86 "HgN/A
12:00 AM70 °FThunderstorms. Passing clouds.10 mph60%29.86 "HgN/A
11:00 PM
Apr 18
73 °FThunderstorms. Passing clouds.8 mph53%29.83 "HgN/A
10:00 PM77 °FSprinkles. Passing clouds.10 mph57%29.80 "HgN/A
9:00 PM77 °FPassing clouds.3 mph61%29.80 "HgN/A
8:00 PM79 °FPassing clouds.6 mph58%29.74 "HgN/A
7:00 PM79 °FScattered clouds.10 mph54%29.71 "HgN/A
6:00 PM79 °FPassing clouds.10 mph51%29.68 "HgN/A
5:00 PM81 °FScattered clouds.10 mph51%29.68 "HgN/A
4:00 PM81 °FPassing clouds.10 mph48%29.68 "HgN/A
3:00 PM81 °FScattered clouds.8 mph51%29.68 "HgN/A
2:00 PM81 °FScattered clouds.6 mph54%29.68 "HgN/A
1:00 PM79 °FScattered clouds.6 mph58%29.71 "HgN/A
12:00 PM77 °FPassing clouds.8 mph54%29.71 "HgN/A
11:00 AM73 °FPassing clouds.6 mph65%29.71 "HgN/A
10:00 AM70 °FScattered clouds.3 mph78%29.71 "Hg4 mi
9:00 AM68 °FFog.No wind88%29.71 "Hg2 mi
8:00 AM66 °FFog.3 mph88%29.68 "Hg2 mi
7:00 AM66 °FFog.No wind88%29.65 "Hg3 mi
6:00 AM66 °FSprinkles. Fog.No wind88%29.65 "Hg3 mi
5:00 AM64 °FPassing clouds.1 mph94%29.62 "Hg4 mi
4:00 AM66 °FPassing clouds.No wind88%29.65 "Hg4 mi
Weather by CustomWeather, © 2014

See weather overview